Date,TemperatureHighF,TemperatureAvgF,TemperatureLowF,DewpointHighF,DewpointAvgF,DewpointLowF,HumidityHigh,HumidityAvg,HumidityLow,PressureMaxIn,PressureMinIn,WindSpeedMaxMPH,WindSpeedAvgMPH,GustSpeedMaxMPH,PrecipitationSumIn
2013-1-1,33.2,21.6,4.8,28.3,14.7,1.4,96,75,64,30.04,29.86,13,4,18,0.00
2013-1-2,27.4,22.0,14.7,18.3,15.2,9.3,83,75,67,30.19,30.00,13,5,18,0.00
2013-1-3,31.1,23.6,11.1,26.8,19.8,7.5,90,85,78,30.18,29.96,15,5,23,0.00
2013-1-4,33.7,30.4,26.2,27.1,24.4,20.4,85,78,75,30.05,29.87,28,13,44,0.00
2013-1-5,34.6,31.0,28.9,28.7,25.4,23.3,84,79,74,30.27,30.03,13,6,21,0.00
2013-1-6,36.2,35.0,32.0,34.0,32.2,26.1,92,89,77,30.10,29.86,13,6,22,0.06
2013-1-7,34.4,29.7,25.0,30.1,24.5,20.8,92,81,73,30.39,30.10,14,5,23,0.01
2013-1-8,37.1,31.6,21.5,31.3,26.9,19.0,91,82,77,30.29,30.14,13,4,20,0.00
2013-1-9,45.0,34.3,19.7,37.4,28.7,17.5,93,81,64,30.44,29.95,27,7,40,0.00
2013-1-10,42.7,35.7,30.1,30.1,28.3,25.9,88,75,59,30.58,30.35,9,2,13,0.00
2013-1-11,51.0,42.4,33.8,46.9,38.2,27.8,92,85,72,30.35,29.83,12,2,20,0.05
2013-1-12,59.0,51.4,39.8,51.4,47.2,37.9,93,86,76,29.96,29.89,15,3,25,0.00
2013-1-13,63.7,53.7,47.5,57.2,50.3,45.1,93,89,77,29.91,29.69,21,4,31,0.53
2013-1-14,47.6,33.1,26.2,45.7,27.6,20.6,93,80,71,30.38,29.72,19,7,24,0.09
2013-1-15,32.0,28.0,24.9,23.8,22.0,19.8,87,78,62,30.40,30.15,10,2,12,0.00
2013-1-16,37.3,32.1,27.2,30.2,26.4,22.9,87,79,70,30.16,29.76,20,5,28,0.01
2013-1-17,35.3,25.0,15.6,30.9,19.1,12.4,89,78,72,30.17,29.83,17,6,25,0.00
2013-1-18,33.9,21.8,15.0,22.2,14.1,8.2,90,73,60,30.45,30.00,14,6,22,0.00
2013-1-19,48.0,42.2,33.9,32.7,28.8,22.2,68,59,48,30.01,29.53,23,10,35,0.00
2013-1-20,47.9,29.7,18.4,36.8,19.4,10.0,87,66,50,30.08,29.43,30,14,48,0.00
2013-1-21,20.3,17.5,11.3,15.3,9.6,0.3,88,71,56,30.06,29.86,17,5,23,0.00
2013-1-22,11.7,8.5,5.6,0.7,-1.8,-3.7,72,62,55,30.20,29.91,24,10,25,0.00
2013-1-23,15.1,10.3,2.8,4.3,1.1,-2.2,83,66,52,30.24,30.10,13,4,15,0.00
2013-1-24,15.2,7.8,-8.3,12.3,2.5,-12.3,88,79,63,30.54,30.09,13,2,16,0.01
2013-1-25,17.7,8.7,-8.3,10.7,3.9,-12.3,97,81,65,30.52,30.08,5,0,7,0.00
2013-1-26,25.6,14.2,1.4,16.5,9.2,-2.1,90,81,61,30.41,30.10,6,0,7,0.02
2013-1-27,29.2,16.6,0.7,20.3,11.4,-2.7,96,80,62,30.57,30.32,8,1,10,0.01
2013-1-28,43.3,35.4,23.4,41.4,32.7,17.6,93,90,78,30.32,29.82,15,4,21,0.35
2013-1-29,57.3,43.8,35.6,54.9,41.8,33.8,93,93,92,30.01,29.65,8,2,17,0.60
2013-1-30,65.4,58.3,51.7,56.9,52.2,48.6,92,80,65,29.65,28.99,20,7,35,0.60
2013-1-31,51.2,29.0,21.7,48.4,21.9,11.5,91,75,50,29.71,29.00,31,15,43,0.11
2013-2-1,21.7,19.4,17.1,16.9,13.4,8.4,90,77,66,30.18,29.70,18,8,25,0.00
2013-2-2,20.2,17.8,14.8,17.2,13.5,5.8,90,83,67,30.17,29.96,16,5,23,0.00
2013-2-3,23.0,16.2,1.3,18.2,11.8,-1.9,92,83,63,29.96,29.79,11,2,17,0.00
2013-2-4,19.7,16.3,11.4,13.3,10.3,7.8,89,77,64,29.97,29.86,13,5,20,0.00
2013-2-5,27.7,20.5,10.1,22.0,14.9,7.2,91,80,62,29.94,29.82,13,2,21,0.01
2013-2-6,27.3,21.9,9.4,23.6,14.8,5.3,86,74,57,30.35,29.86,14,5,21,0.00
2013-2-7,30.9,23.0,8.4,21.0,16.2,5.0,92,75,63,30.37,30.04,10,3,15,0.00
2013-2-8,33.7,26.3,17.9,31.9,23.5,15.7,93,89,79,30.13,29.75,11,4,17,0.00
2013-2-9,21.3,14.6,-3.2,17.3,11.5,-6.7,91,87,83,30.41,30.13,6,2,8,0.00
2013-2-10,40.4,17.6,-10.6,28.1,10.4,-14.3,91,75,45,30.40,29.91,8,1,10,0.28
2013-2-11,49.7,38.7,33.2,42.3,32.6,25.6,92,79,56,29.91,29.55,24,9,36,0.16
2013-2-12,33.9,32.4,30.0,30.9,26.6,24.0,89,79,72,29.95,29.70,19,9,29,0.00
2013-2-13,36.9,29.1,17.3,25.2,22.4,14.6,90,76,60,29.88,29.71,8,2,12,0.00
2013-2-14,38.4,30.6,16.4,35.9,26.3,13.9,93,85,63,29.88,29.73,15,3,26,0.13
2013-2-15,37.7,29.9,19.7,33.0,23.2,14.8,83,76,64,30.06,29.74,21,9,31,0.00
2013-2-16,28.4,21.5,11.8,21.1,15.6,8.3,98,79,55,30.06,29.90,10,2,13,0.00
2013-2-17,20.8,15.1,11.6,18.9,9.4,4.2,98,78,65,30.22,29.90,15,6,22,0.00
2013-2-18,32.2,20.3,2.6,21.5,11.9,-1.1,89,71,50,30.28,29.84,10,2,13,0.01
2013-2-19,42.4,32.3,23.6,37.9,27.1,18.1,91,81,62,29.84,29.52,23,9,36,0.43
2013-2-20,23.9,21.0,19.2,18.7,13.8,11.8,81,73,67,30.09,29.74,23,13,31,0.00
2013-2-21,22.9,19.2,14.8,18.0,13.5,9.7,94,78,70,30.40,30.07,15,6,20,0.00
2013-2-22,34.4,27.8,20.0,30.6,23.3,15.9,89,83,71,30.38,29.95,11,2,14,0.02
2013-2-23,38.0,33.6,29.9,32.4,28.6,24.6,86,82,73,29.96,29.85,12,4,17,0.00
2013-2-24,32.2,30.3,28.3,26.8,25.1,23.6,88,81,76,30.07,29.83,14,6,20,0.00
2013-2-25,34.6,31.5,24.9,28.9,26.7,22.0,90,82,74,30.21,30.07,7,2,10,0.00
2013-2-26,43.2,33.7,21.5,33.7,27.1,19.3,92,78,55,30.20,29.68,12,3,23,0.98
2013-2-27,36.2,34.9,33.9,34.4,33.0,32.0,93,92,91,29.69,29.55,11,2,20,0.45
2013-2-28,36.0,34.5,32.6,34.2,32.6,30.5,93,93,89,29.74,29.50,10,4,16,0.20
2013-3-1,32.6,28.2,24.6,30.5,24.0,20.1,92,84,78,29.95,29.74,11,5,16,0.00
2013-3-2,25.6,23.3,20.8,20.8,18.7,16.7,92,83,77,29.96,29.89,10,4,14,0.00
2013-3-3,24.5,22.4,20.1,21.5,18.5,15.2,91,85,78,29.93,29.86,11,4,16,0.00
2013-3-4,29.7,25.1,19.3,23.1,19.5,15.9,88,80,69,30.07,29.92,14,6,19,0.01
2013-3-5,32.8,26.3,16.1,24.3,20.9,12.7,90,80,68,30.09,29.93,14,3,21,0.00
2013-3-6,39.9,33.2,25.4,32.9,28.7,21.5,89,84,75,30.13,29.93,13,4,20,0.00
2013-3-7,39.7,34.1,28.9,33.2,30.3,26.1,92,86,71,30.27,30.12,7,1,12,0.00
2013-3-8,42.7,34.1,22.9,31.4,27.4,20.9,93,78,55,30.39,30.26,12,2,18,0.01
2013-3-9,48.6,33.7,22.5,37.0,28.6,20.5,93,83,53,30.41,30.16,7,1,12,0.00
2013-3-10,66.0,49.0,30.3,39.5,32.5,27.6,92,58,33,30.16,29.90,14,2,20,0.00
2013-3-11,65.0,54.9,46.4,44.1,34.9,31.6,90,48,34,29.90,29.57,13,3,20,0.15
2013-3-12,46.9,37.6,33.8,44.1,33.0,28.4,90,83,77,29.88,29.65,17,8,24,0.02
2013-3-13,35.1,30.8,22.7,31.1,26.0,15.4,91,82,69,29.98,29.81,18,8,27,0.04
2013-3-14,32.4,26.1,20.7,17.8,14.2,9.5,85,61,43,30.10,29.98,22,9,30,0.00
2013-3-15,36.9,31.3,22.8,31.6,25.2,17.4,89,78,62,30.04,29.74,16,6,24,0.00
2013-3-16,28.9,25.9,18.1,22.4,18.9,15.1,89,75,67,29.99,29.82,10,3,14,0.00
2013-3-17,29.7,24.5,16.8,21.5,17.0,10.6,92,74,49,30.32,29.98,12,3,17,0.00
2013-3-18,35.1,26.7,16.2,32.1,20.1,11.4,90,77,49,30.32,29.63,11,3,17,0.00
2013-3-19,37.4,31.6,24.8,35.3,26.2,19.3,92,80,66,29.83,29.61,20,10,35,0.12
2013-3-20,31.9,26.6,23.7,22.7,20.2,15.7,90,77,59,29.83,29.78,15,7,22,0.00
2013-3-21,28.9,24.6,18.8,26.8,19.2,12.6,92,80,56,29.82,29.71,16,6,25,0.00
2013-3-22,32.6,28.5,25.2,27.3,24.8,22.4,91,86,75,29.94,29.75,18,7,18,0.01
2013-3-23,38.9,32.4,26.5,27.3,24.7,22.8,87,74,55,30.02,29.91,14,6,20,0.02
2013-3-24,37.9,30.9,20.2,30.0,23.2,17.7,92,74,57,30.02,29.69,11,3,16,0.00
2013-3-25,41.5,35.0,31.4,31.6,27.7,24.4,85,75,62,29.73,29.59,12,4,18,0.00
2013-3-26,47.4,38.7,30.8,33.2,29.1,24.8,89,70,43,29.94,29.73,10,3,14,0.00
2013-3-27,42.6,35.3,31.2,35.2,30.7,25.5,92,83,65,30.05,29.92,12,4,17,0.06
2013-3-28,42.4,37.1,34.0,35.2,32.7,27.3,93,85,56,30.19,30.04,11,4,15,0.00
2013-3-29,48.8,39.4,29.0,34.1,32.1,26.1,91,77,49,30.19,30.12,14,3,20,0.00
2013-3-30,49.4,36.7,24.8,36.3,27.6,22.8,100,73,40,30.20,30.00,14,2,20,0.00
2013-3-31,58.9,43.9,30.6,42.7,33.7,27.7,92,71,37,30.00,29.56,15,4,22,0.04
2013-4-1,45.2,34.5,26.7,42.4,25.9,16.7,92,72,49,29.96,29.54,21,9,29,0.01
2013-4-2,34.4,28.7,24.3,24.3,18.4,15.4,78,65,51,30.12,29.95,21,9,35,0.00
2013-4-3,35.4,30.2,25.8,20.0,17.9,14.7,71,61,45,30.39,30.12,18,8,26,0.00
2013-4-4,49.7,34.1,19.8,26.3,19.1,6.3,91,59,21,30.35,29.90,14,4,22,0.00
2013-4-5,41.6,35.7,28.7,29.8,23.5,17.3,84,61,49,30.16,29.87,13,4,21,0.00
2013-4-6,50.7,35.2,18.7,27.9,21.3,15.7,91,60,29,30.30,29.96,7,1,10,0.00
2013-4-7,65.8,53.5,40.2,46.3,35.4,23.5,73,52,33,30.01,29.67,29,9,46,0.00
2013-4-8,60.5,45.3,29.0,52.2,37.2,26.2,92,75,49,30.07,29.70,19,2,31,0.29
2013-4-9,57.7,49.2,45.2,49.0,44.4,41.3,92,84,61,30.08,29.75,18,5,25,0.69
2013-4-10,47.8,44.1,39.3,45.6,42.1,36.9,93,93,91,30.02,29.81,13,5,20,0.71
2013-4-11,39.3,35.0,32.9,36.9,32.3,29.6,92,90,77,30.09,29.86,12,5,20,0.57
2013-4-12,49.2,39.3,33.7,46.9,36.8,31.3,93,91,82,29.86,29.46,18,7,30,0.60
2013-4-13,42.3,40.0,37.9,38.6,35.4,33.3,91,84,72,29.91,29.74,20,10,30,0.00
2013-4-14,46.2,39.9,34.4,34.8,30.5,27.5,88,69,55,30.14,29.91,14,5,20,0.00
2013-4-15,70.3,55.2,37.4,51.6,41.6,29.0,77,61,46,30.11,29.93,15,4,22,0.00
2013-4-16,63.2,56.8,44.2,55.9,50.2,40.6,92,80,60,30.19,29.89,18,6,28,0.10
2013-4-17,56.2,45.6,33.2,40.6,35.3,31.1,93,69,47,30.33,30.15,13,3,20,0.00
2013-4-18,82.5,63.7,44.3,61.9,50.8,32.9,83,64,48,30.16,29.60,18,6,29,0.02
2013-4-19,72.3,56.1,37.5,60.4,47.0,31.4,89,72,61,29.75,29.28,26,10,41,0.06
2013-4-20,41.4,36.3,31.1,33.5,27.7,22.1,90,71,57,30.40,29.70,22,11,36,0.04
2013-4-21,45.8,34.8,22.9,30.3,23.9,19.7,91,65,48,30.67,30.40,12,2,15,0.00
2013-4-22,62.7,45.4,26.6,37.1,28.8,20.3,91,56,28,30.55,30.27,16,1,21,0.00
2013-4-23,67.3,51.3,33.9,42.0,34.9,28.0,88,56,33,30.27,29.86,8,1,12,0.00
2013-4-24,61.6,52.5,37.3,55.7,44.1,32.9,92,75,46,30.00,29.58,17,6,26,0.57
2013-4-25,52.4,41.9,31.4,39.1,34.1,27.1,93,76,43,30.38,30.00,17,5,26,0.02
2013-4-26,53.6,44.1,33.4,39.8,33.6,25.9,93,70,40,30.46,30.29,12,2,16,0.00
2013-4-27,69.5,51.4,33.2,43.7,36.8,31.0,92,63,30,30.40,30.16,9,1,15,0.00
2013-4-28,73.1,56.6,41.1,51.2,43.7,38.4,92,67,30,30.16,29.93,14,2,20,0.05
2013-4-29,63.1,57.8,51.4,54.3,50.9,46.6,91,78,71,29.98,29.89,9,2,13,0.05
2013-4-30,73.4,63.4,53.8,57.6,53.3,49.1,91,71,52,30.14,29.98,10,2,15,0.00
2013-5-1,78.7,64.9,54.3,60.1,52.0,48.4,85,64,42,30.27,30.14,11,2,16,0.00
2013-5-2,77.8,62.5,45.6,50.4,45.1,39.1,92,57,29,30.36,30.19,12,2,17,0.00
2013-5-3,78.9,63.8,47.4,54.0,47.4,43.0,92,60,33,30.24,30.12,12,2,17,0.00
2013-5-4,72.3,60.8,46.3,49.6,45.0,36.0,92,60,33,30.22,30.07,13,2,20,0.00
2013-5-5,76.3,60.6,45.2,53.9,46.7,42.8,92,64,36,30.16,30.01,13,2,18,0.00
2013-5-6,74.7,58.6,41.8,48.3,42.1,34.3,92,60,25,30.11,29.97,10,2,16,0.00
2013-5-7,78.0,62.0,46.1,57.2,50.9,43.6,92,70,41,30.07,29.94,12,2,16,0.00
2013-5-8,69.7,61.3,52.0,61.3,55.8,49.3,92,83,64,29.99,29.88,6,0,8,0.14
2013-5-9,70.3,61.1,53.0,62.2,56.8,50.3,92,86,69,29.91,29.83,7,1,12,0.13
2013-5-10,74.1,59.2,48.0,62.6,55.4,45.8,93,88,63,29.91,29.65,15,2,25,0.29
2013-5-11,61.2,51.3,47.0,58.9,48.0,43.3,93,89,80,29.74,29.61,16,6,25,0.02
2013-5-12,50.7,42.6,37.7,48.0,36.0,30.4,91,78,60,29.93,29.66,21,9,37,0.19
2013-5-13,46.1,40.0,34.1,37.9,33.5,30.4,89,78,63,30.12,29.92,16,6,23,0.02
2013-5-14,55.9,46.2,32.9,44.1,34.9,28.7,93,68,37,30.12,29.88,11,2,16,0.00
2013-5-15,76.0,60.0,47.0,60.3,49.8,41.2,92,71,46,29.88,29.49,25,4,35,0.00
2013-5-16,73.3,60.9,47.9,51.7,45.9,35.3,92,62,29,29.98,29.70,17,5,26,0.00
2013-5-17,65.8,53.1,39.5,48.3,42.8,37.1,92,70,45,30.18,29.98,9,1,13,0.00
2013-5-18,73.0,61.9,43.1,52.6,47.0,40.1,92,60,43,30.20,30.07,11,2,14,0.00
2013-5-19,80.9,66.6,50.9,66.0,57.4,45.3,92,74,52,30.08,29.90,9,1,13,0.00
2013-5-20,85.6,71.5,59.0,70.9,62.9,56.1,91,76,51,29.98,29.78,16,1,25,0.00
2013-5-21,85.3,72.6,61.7,71.4,65.0,58.6,92,78,53,29.88,29.68,13,3,21,0.01
2013-5-22,85.0,72.5,59.1,67.6,63.2,56.8,93,74,53,29.74,29.58,14,3,21,0.00
2013-5-23,72.8,62.5,44.6,64.5,57.2,42.1,92,83,68,29.89,29.63,15,6,21,0.17
2013-5-24,51.2,43.8,39.0,42.1,37.4,35.4,92,79,59,30.22,29.89,14,5,20,0.19
2013-5-25,57.7,48.3,38.4,39.5,37.2,34.1,91,67,47,30.25,30.16,15,4,23,0.00
2013-5-26,63.0,51.2,39.1,42.3,37.2,31.9,90,62,35,30.22,30.14,13,4,21,0.00
2013-5-27,70.5,54.4,37.9,50.5,42.0,35.8,93,68,34,30.25,30.05,8,1,10,0.00
2013-5-28,65.6,57.5,47.8,63.2,54.8,44.4,92,91,87,30.11,29.86,11,0,17,1.75
2013-5-29,78.5,69.5,64.1,66.7,63.3,59.7,92,81,62,29.97,29.83,19,5,31,0.67
2013-5-30,83.0,72.2,61.0,69.8,64.4,58.4,92,78,61,30.06,29.96,11,2,20,0.00
2013-5-31,85.7,74.7,63.2,70.2,65.2,60.8,92,74,52,30.00,29.86,15,3,22,0.04
2013-6-1,84.2,72.7,66.4,70.6,66.9,63.7,92,83,63,29.90,29.71,18,4,26,1.34
2013-6-2,71.3,67.0,54.3,66.7,61.7,48.6,92,83,72,29.85,29.62,20,7,32,1.27
2013-6-3,61.1,53.9,47.2,50.6,46.6,42.9,91,77,57,30.01,29.85,12,4,15,0.00
2013-6-4,67.5,55.6,44.7,49.6,45.0,40.3,92,70,39,30.14,30.01,9,2,14,0.00
2013-6-5,69.4,57.2,47.1,52.5,47.4,41.7,92,72,49,30.18,30.02,10,2,17,0.00
2013-6-6,61.1,56.6,51.9,58.7,52.5,42.6,92,86,60,30.03,29.78,9,1,13,0.79
2013-6-7,59.6,57.4,53.6,57.2,55.2,51.6,93,92,90,29.83,29.77,7,2,10,0.01
2013-6-8,63.2,58.9,56.6,59.2,55.8,53.6,93,89,80,30.04,29.79,10,2,16,0.01
2013-6-9,76.4,64.3,52.5,61.4,56.6,50.5,93,78,53,30.16,30.04,7,1,10,0.00
2013-6-10,72.6,65.8,60.0,68.6,62.6,56.6,92,89,78,30.05,29.64,10,0,18,0.22
2013-6-11,72.0,65.8,60.6,63.0,60.9,57.3,93,85,69,29.81,29.61,12,4,20,0.06
2013-6-12,77.0,66.0,53.5,63.8,58.0,51.2,93,77,52,29.88,29.70,6,0,9,0.00
2013-6-13,65.8,61.9,58.5,63.1,59.1,56.1,93,91,82,29.75,29.46,14,4,23,0.95
2013-6-14,72.0,61.4,49.6,62.2,56.6,47.7,93,85,60,29.99,29.74,9,2,13,0.00
2013-6-15,69.8,62.0,49.7,57.0,52.9,46.9,93,74,46,30.03,29.90,11,2,17,0.00
2013-6-16,76.0,66.7,59.8,68.0,61.7,56.4,92,84,68,29.90,29.66,13,3,20,0.12
2013-6-17,77.2,68.2,59.0,66.2,61.1,56.7,92,79,55,29.88,29.76,11,2,17,0.00
2013-6-18,68.6,61.7,52.9,58.7,53.5,47.6,92,76,49,29.99,29.84,11,3,16,0.00
2013-6-19,68.1,58.4,49.3,52.3,47.8,42.1,93,71,41,30.16,29.98,10,1,14,0.00
2013-6-20,76.2,60.8,44.5,58.1,49.8,42.5,96,71,42,30.21,30.15,8,1,12,0.00
2013-6-21,82.0,65.7,48.8,62.3,53.8,46.7,93,70,38,30.23,30.05,6,0,9,0.00
2013-6-22,84.3,72.5,58.3,70.8,64.3,55.5,92,77,61,30.11,29.94,15,3,25,0.00
2013-6-23,86.5,77.3,69.8,71.8,68.1,65.5,91,75,51,30.01,29.92,17,4,23,0.00
2013-6-24,82.7,76.1,69.8,71.5,67.5,64.2,86,75,62,29.99,29.87,16,4,25,0.00
2013-6-25,77.9,72.9,68.7,70.9,67.3,64.2,89,83,72,29.89,29.74,16,4,26,0.07
2013-6-26,79.2,72.9,67.4,71.5,67.0,63.8,92,82,66,29.78,29.73,11,4,17,0.00
2013-6-27,77.3,69.6,63.4,72.3,66.3,61.0,93,90,73,29.75,29.58,6,0,12,0.40
2013-6-28,70.7,66.3,62.7,68.2,64.0,60.6,93,92,90,29.59,29.44,6,0,9,1.41
2013-6-29,76.2,67.1,62.1,67.6,62.4,59.5,93,85,66,29.65,29.44,8,2,13,0.02
2013-6-30,75.7,67.9,60.1,66.6,62.2,57.8,93,83,65,29.87,29.65,9,2,16,0.00
2013-7-1,69.1,64.7,59.6,63.8,61.1,57.6,93,88,79,30.02,29.87,10,4,16,0.05
2013-7-2,72.8,65.9,59.5,67.3,62.6,57.5,93,89,82,30.04,29.98,7,2,12,0.01
2013-7-3,85.0,73.6,63.2,75.8,68.7,61.0,93,85,65,30.09,30.02,8,1,12,0.02
2013-7-4,81.7,74.3,69.5,72.9,69.5,67.0,92,86,68,30.12,30.05,9,1,17,0.02
2013-7-5,80.7,73.9,68.5,73.8,69.3,66.0,92,86,72,30.08,30.00,10,2,16,0.19
2013-7-6,83.4,75.0,66.7,72.2,69.2,64.4,93,83,66,30.09,29.97,7,1,12,0.00
2013-7-7,79.0,73.8,70.1,71.4,69.1,67.0,92,86,70,30.00,29.88,14,4,23,0.07
2013-7-8,80.7,74.3,69.8,73.1,69.5,67.4,93,86,70,30.00,29.92,10,2,18,0.00
2013-7-9,79.3,73.9,70.4,73.2,70.3,68.0,93,89,80,29.98,29.83,6,0,12,0.06
2013-7-10,82.2,75.2,70.3,75.4,70.8,62.5,93,86,74,29.84,29.63,17,5,32,0.01
2013-7-11,77.1,66.9,58.4,65.3,59.3,55.8,93,78,55,30.04,29.79,9,1,14,0.00
2013-7-12,73.9,67.2,57.8,67.3,63.2,55.8,93,87,76,30.14,29.97,8,0,10,0.00
2013-7-13,83.0,71.2,58.4,71.3,65.4,56.4,94,83,63,30.19,30.11,9,1,12,0.00
2013-7-14,87.6,76.6,64.7,76.1,69.7,62.3,93,81,59,30.25,30.18,8,1,12,0.00
2013-7-15,89.3,78.5,69.0,76.2,70.8,60.6,93,79,40,30.25,30.17,6,0,12,0.00
2013-7-16,90.5,78.6,67.4,77.5,70.4,65.0,93,78,48,30.23,30.14,7,0,10,0.00
2013-7-17,89.3,82.0,73.9,80.8,76.3,71.4,92,84,60,30.17,30.02,12,2,20,0.00
2013-7-18,89.8,81.4,74.7,79.8,75.3,72.2,92,82,65,30.05,29.88,11,2,17,0.00
2013-7-19,86.9,80.8,69.3,77.5,73.6,65.5,92,79,60,29.88,29.65,20,7,35,2.82
2013-7-20,82.0,73.7,66.4,72.6,67.7,61.6,93,83,53,29.84,29.66,14,2,22,1.02
2013-7-21,77.3,69.9,62.8,66.0,63.5,60.3,93,81,63,29.95,29.84,7,1,12,0.00
2013-7-22,78.1,68.9,58.4,69.7,63.7,56.4,93,84,66,29.95,29.72,7,1,12,0.00
2013-7-23,79.4,71.2,62.5,71.0,66.4,57.8,93,85,65,29.72,29.56,13,3,21,0.11
2013-7-24,67.8,61.2,54.2,58.0,53.1,49.5,92,75,56,30.00,29.67,10,3,18,0.00
2013-7-25,72.9,61.6,49.8,61.5,54.2,47.9,94,78,53,30.09,30.00,8,1,12,0.00
2013-7-26,78.1,63.5,48.9,63.7,55.7,46.9,94,78,52,30.09,29.95,7,1,12,0.00
2013-7-27,76.5,66.6,56.5,67.4,62.2,54.5,93,86,68,29.95,29.75,9,0,16,0.43
2013-7-28,71.3,66.0,60.3,64.5,58.8,53.5,93,79,59,29.93,29.73,12,3,23,0.02
2013-7-29,69.5,63.2,58.2,61.6,57.7,53.7,95,83,67,30.10,29.91,12,3,18,0.04
2013-7-30,74.0,64.9,55.5,62.8,58.6,53.5,93,81,60,30.16,30.09,10,2,16,0.00
2013-7-31,77.5,66.9,55.7,66.3,60.2,53.7,94,81,49,30.11,29.86,6,0,10,0.00
2013-8-1,75.7,68.2,63.8,68.7,64.4,61.3,93,88,63,29.86,29.72,16,2,22,0.85
2013-8-2,75.3,66.7,56.2,68.6,61.1,54.2,94,83,64,29.83,29.77,15,3,25,0.26
2013-8-3,74.8,67.2,59.0,64.0,59.3,53.4,93,77,50,29.90,29.78,12,3,17,0.15
2013-8-4,71.7,62.9,52.6,59.8,55.3,50.3,93,77,56,30.04,29.90,12,3,21,0.00
2013-8-5,73.4,60.6,48.9,61.5,53.5,47.0,94,79,52,30.08,29.97,8,1,14,0.00
2013-8-6,79.5,65.9,53.9,64.7,57.8,51.8,93,77,45,30.01,29.90,6,0,9,0.00
2013-8-7,81.0,72.0,62.3,71.9,65.6,59.9,93,81,66,29.92,29.79,11,2,18,0.00
2013-8-8,81.2,73.3,65.6,74.3,69.4,63.5,93,88,77,29.90,29.83,10,1,17,0.91
2013-8-9,77.3,69.9,63.7,70.0,64.6,59.9,93,84,57,29.89,29.82,10,2,14,0.63
2013-8-10,72.4,64.3,52.6,64.1,56.3,49.3,93,77,53,30.06,29.89,11,2,17,0.00
2013-8-11,74.7,63.6,51.4,60.8,55.9,49.4,94,78,51,30.10,29.99,9,1,12,0.00
2013-8-12,74.3,67.7,59.4,66.1,62.4,57.4,93,84,65,30.01,29.80,10,2,16,0.00
2013-8-13,69.2,62.8,53.5,65.5,57.1,48.4,93,82,61,29.85,29.70,15,5,23,0.40
2013-8-14,68.6,60.4,52.9,56.1,51.6,48.0,91,74,48,30.06,29.83,12,4,20,0.00
2013-8-15,71.5,60.9,50.1,58.5,52.9,48.1,93,77,54,30.10,30.03,12,3,20,0.00
2013-8-16,75.8,62.9,51.2,64.0,56.1,49.2,93,80,57,30.16,30.08,9,1,13,0.00
2013-8-17,81.0,65.4,51.9,66.3,56.6,49.9,94,77,43,30.25,30.16,6,0,9,0.00
2013-8-18,81.2,66.5,53.6,67.7,59.4,51.6,95,80,48,30.20,30.06,8,0,12,0.00
2013-8-19,79.8,67.9,55.8,66.7,60.7,53.8,94,80,56,30.08,29.99,7,1,12,0.00
2013-8-20,80.2,69.7,58.7,68.7,63.3,56.6,93,81,60,30.08,30.01,12,2,17,0.00
2013-8-21,82.7,70.9,59.3,69.9,64.1,57.3,93,81,57,30.11,29.97,10,1,15,0.00
2013-8-22,79.4,70.9,61.6,74.3,66.6,59.3,93,87,68,29.99,29.86,12,2,20,0.13
2013-8-23,73.9,63.9,54.3,63.5,56.7,52.3,94,79,52,30.16,29.95,8,2,14,0.00
2013-8-24,78.2,62.2,49.2,64.2,54.5,47.2,94,78,44,30.31,30.16,8,1,12,0.00
2013-8-25,79.2,66.0,49.7,64.9,56.6,47.8,94,74,48,30.29,30.08,12,2,18,0.00
2013-8-26,77.2,72.0,68.4,73.1,68.3,64.1,93,88,77,30.11,29.88,12,4,20,0.72
2013-8-27,81.6,74.4,68.0,75.1,70.8,65.9,93,89,77,29.90,29.81,10,1,14,0.87
2013-8-28,81.9,74.0,67.2,74.5,70.4,65.0,93,89,74,29.91,29.79,8,1,12,0.17
2013-8-29,83.7,72.4,62.9,75.5,67.0,60.8,94,84,61,30.00,29.91,8,1,12,0.00
2013-8-30,81.3,72.6,62.7,73.7,67.6,60.6,93,85,65,29.96,29.69,13,1,18,0.01
2013-8-31,79.2,73.5,66.9,71.8,69.3,64.8,93,87,74,29.79,29.65,9,2,15,0.00
2013-9-1,81.5,72.1,64.9,74.9,68.5,62.8,93,89,73,29.78,29.69,7,0,12,0.21
2013-9-2,78.7,70.5,63.1,74.5,65.9,56.4,94,86,72,29.75,29.64,15,3,21,0.01
2013-9-3,67.0,62.4,58.3,60.5,57.7,54.5,90,84,77,29.92,29.74,11,3,18,0.00
2013-9-4,73.9,65.8,54.1,64.8,58.8,51.8,93,79,49,29.96,29.91,15,4,24,0.02
2013-9-5,65.7,57.8,46.5,63.3,50.6,43.1,93,79,51,30.20,29.94,10,2,17,0.00
2013-9-6,67.3,54.6,42.0,55.9,47.8,40.4,94,80,49,30.26,30.06,8,1,13,0.00
2013-9-7,66.6,60.4,52.6,64.5,57.7,50.6,93,91,79,30.06,29.83,13,1,20,0.30
2013-9-8,68.0,62.0,49.2,65.9,54.8,47.3,93,79,54,30.07,29.82,10,3,22,0.01
2013-9-9,71.7,58.9,43.6,65.5,54.1,42.0,94,85,64,30.10,29.90,8,1,13,0.00
2013-9-10,85.3,77.4,68.5,74.8,70.9,64.9,91,81,67,29.95,29.84,19,6,28,0.05
2013-9-11,85.5,78.7,72.4,74.8,72.3,69.5,92,81,67,29.97,29.83,17,5,26,0.29
2013-9-12,73.5,67.2,56.2,70.1,64.1,52.8,93,90,77,29.89,29.68,14,2,21,0.48
2013-9-13,59.6,53.4,49.7,56.7,49.7,45.1,92,87,79,30.01,29.73,11,3,14,0.00
2013-9-14,63.2,52.9,46.0,53.0,44.6,35.7,93,75,39,30.10,30.00,8,2,12,0.00
2013-9-15,66.7,56.7,45.9,57.0,51.4,44.3,94,83,65,30.11,30.01,11,2,17,0.10
2013-9-16,55.2,50.7,40.6,53.5,48.1,38.8,94,91,75,30.35,30.03,10,2,17,0.04
2013-9-17,65.8,49.0,35.6,52.5,42.8,34.0,95,81,51,30.46,30.25,8,0,14,0.00
2013-9-18,72.8,54.8,39.2,60.4,47.1,37.6,94,78,45,30.25,30.06,7,0,12,0.00
2013-9-19,75.3,59.0,46.0,64.3,54.5,44.3,98,86,62,30.09,29.95,9,1,13,0.00
2013-9-20,80.2,70.0,53.1,70.4,63.5,51.1,94,81,69,29.96,29.68,9,2,17,0.00
2013-9-21,73.9,63.2,53.5,68.0,60.6,50.3,94,91,79,29.72,29.57,14,2,30,3.15
2013-9-22,54.4,51.5,49.1,50.2,46.1,42.6,95,82,69,30.01,29.72,13,3,15,0.00
2013-9-23,59.3,50.5,42.3,49.4,43.9,40.1,94,79,54,30.14,30.01,8,1,12,0.00
2013-9-24,64.4,49.7,38.1,54.3,44.2,36.5,94,83,44,30.14,29.99,7,1,9,0.00
2013-9-25,69.3,51.7,38.8,58.2,45.8,37.2,94,82,53,30.00,29.91,8,1,13,0.00
2013-9-26,69.7,53.9,40.0,57.6,48.1,38.1,94,82,56,30.12,29.97,9,1,12,0.00
2013-9-27,68.1,56.0,45.4,58.7,51.4,43.5,94,85,69,30.23,30.12,8,1,13,0.00
2013-9-28,75.9,58.5,44.2,63.6,52.2,42.3,94,82,52,30.25,30.11,3,0,8,0.01
2013-9-29,75.3,59.6,46.2,64.3,53.6,44.3,94,82,55,30.11,29.94,9,1,15,0.00
2013-9-30,71.9,63.5,55.7,63.0,59.4,53.7,93,87,72,29.96,29.90,10,2,17,0.00
2013-10-1,71.3,65.0,55.9,64.0,60.5,53.9,94,86,70,29.98,29.86,13,3,20,0.00
2013-10-2,74.8,66.3,52.3,65.2,61.7,50.1,93,85,67,30.05,29.87,11,3,15,0.00
2013-10-3,70.5,57.9,44.1,59.6,51.1,42.5,94,80,47,30.09,29.97,5,0,8,0.00
2013-10-4,71.8,65.3,59.6,69.1,63.2,57.3,94,93,87,30.01,29.94,8,0,12,0.95
2013-10-5,64.9,61.1,59.0,63.0,59.0,56.4,94,93,91,30.06,29.95,7,2,12,0.55
2013-10-6,81.9,68.0,59.0,73.0,64.4,57.0,94,89,69,29.95,29.62,7,1,17,0.90
2013-10-7,75.3,59.4,49.0,65.9,53.7,46.1,93,82,65,30.02,29.59,20,7,31,0.59
2013-10-8,64.7,52.4,43.4,53.4,46.6,41.8,94,82,52,30.31,30.02,5,1,10,0.00
2013-10-9,69.4,52.4,39.0,54.4,45.2,37.4,94,80,42,30.36,30.23,6,0,8,0.00
2013-10-10,70.1,52.3,40.4,53.7,44.5,38.8,94,79,37,30.25,30.10,7,0,9,0.00
2013-10-11,71.2,53.7,42.3,57.3,47.0,40.6,94,81,44,30.14,30.07,9,1,13,0.00
2013-10-12,77.1,56.1,40.2,59.8,47.3,38.6,94,76,34,30.15,30.06,8,0,12,0.00
2013-10-13,67.1,59.8,49.4,62.1,56.4,47.2,93,89,74,30.23,30.11,9,1,16,0.40
2013-10-14,62.6,55.2,43.8,57.6,49.8,41.9,93,83,57,30.31,30.23,7,1,12,0.09
2013-10-15,69.1,54.5,41.7,58.5,50.3,40.1,94,86,65,30.26,29.88,7,0,12,0.00
2013-10-16,68.5,62.1,54.1,61.0,57.4,48.8,93,85,71,29.88,29.69,10,4,21,0.48
2013-10-17,60.4,54.8,50.4,52.7,50.2,46.9,94,85,68,29.83,29.65,10,2,16,0.48
2013-10-18,59.4,52.2,46.7,50.4,45.5,40.4,93,79,55,29.86,29.69,18,6,28,0.01
2013-10-19,57.6,51.1,43.5,53.6,47.3,40.9,94,87,69,29.84,29.62,12,3,17,0.40
2013-10-20,54.1,46.7,40.4,45.9,41.5,37.1,93,83,62,29.94,29.74,12,4,20,0.00
2013-10-21,65.3,54.2,44.8,49.5,44.1,41.3,94,71,42,29.92,29.74,16,4,26,0.15
2013-10-22,50.9,44.8,40.3,48.8,35.7,28.9,93,71,53,29.83,29.72,18,7,28,0.20
2013-10-23,47.4,40.3,34.4,41.4,36.0,31.8,93,85,66,29.80,29.68,14,2,18,0.06
2013-10-24,47.4,39.4,33.5,36.6,34.1,30.6,90,82,61,30.01,29.77,19,6,28,0.00
2013-10-25,48.2,41.8,36.1,42.2,36.3,32.7,94,81,64,30.17,30.01,13,3,18,0.00
2013-10-26,45.0,43.0,39.4,41.4,37.2,32.0,92,80,65,30.09,29.74,22,8,36,0.42
2013-10-27,47.9,41.4,35.5,39.6,36.5,32.4,93,83,66,30.02,29.79,11,3,15,0.01
2013-10-28,47.2,41.3,27.9,40.3,33.2,22.6,92,74,47,30.37,29.99,11,3,18,0.00
2013-10-29,47.4,37.6,27.2,35.3,30.6,24.9,94,78,52,30.45,30.27,6,1,10,0.00
2013-10-30,59.0,45.2,36.8,43.9,39.1,34.8,94,81,52,30.27,30.05,5,0,7,0.01
2013-10-31,66.3,55.9,39.6,60.0,52.5,37.6,94,89,74,30.05,29.29,16,4,26,0.98
2013-11-1,63.2,55.2,47.7,59.3,49.8,43.3,93,82,72,29.62,29.09,32,12,50,0.41
2013-11-2,48.8,44.3,37.0,46.3,41.5,33.4,93,90,84,30.00,29.56,11,4,16,0.13
2013-11-3,37.4,32.7,24.3,33.4,26.0,22.3,92,77,60,30.52,30.00,9,2,13,0.01
2013-11-4,41.2,32.4,22.2,32.6,24.3,20.3,94,74,50,30.63,30.41,9,1,12,0.00
2013-11-5,59.1,44.5,28.4,39.2,33.4,25.8,93,67,46,30.43,30.28,8,1,14,0.00
2013-11-6,65.7,55.4,43.5,57.0,46.2,35.0,93,72,56,30.28,29.75,16,4,26,0.40
2013-11-7,56.6,43.1,38.4,54.3,36.8,30.5,93,79,67,29.98,29.75,16,7,27,0.13
2013-11-8,41.2,38.1,34.4,33.5,31.0,29.4,88,76,66,30.22,29.95,15,6,22,0.00
2013-11-9,51.3,43.1,32.3,46.2,34.6,28.6,91,73,50,30.20,29.75,14,4,22,0.06
2013-11-10,49.9,43.3,38.1,43.8,35.6,31.3,92,74,67,30.16,29.75,22,9,31,0.03
2013-11-11,44.7,37.8,30.5,39.7,33.0,23.6,92,83,71,30.16,29.90,21,6,28,0.32
2013-11-12,32.9,28.6,25.5,25.6,20.8,16.1,84,73,58,30.41,30.12,15,5,22,0.00
2013-11-13,39.2,33.2,24.9,29.8,24.9,19.0,86,72,55,30.42,30.07,23,8,35,0.00
2013-11-14,48.2,43.5,38.6,34.3,30.1,26.2,77,60,43,30.08,29.97,21,12,38,0.00
2013-11-15,51.3,46.7,42.7,39.2,31.9,28.5,78,57,46,30.07,30.00,17,6,24,0.00
2013-11-16,59.8,47.2,33.8,44.6,38.3,30.1,92,72,53,30.19,29.95,10,2,15,0.00
2013-11-17,64.3,58.5,49.9,57.3,52.3,44.4,92,80,72,29.95,29.28,16,5,26,0.44
2013-11-18,55.9,44.8,36.1,47.3,36.1,28.4,84,71,63,29.92,29.32,28,15,44,0.02
2013-11-19,37.6,32.9,22.9,28.5,25.0,20.7,91,73,60,30.45,29.92,16,5,25,0.00
2013-11-20,41.1,29.5,19.3,28.9,22.5,17.1,93,76,55,30.56,30.39,8,2,13,0.00
2013-11-21,45.1,36.7,23.8,38.2,29.9,20.6,93,78,56,30.39,30.21,9,1,16,0.09
2013-11-22,47.7,42.3,31.3,46.1,39.9,26.6,94,91,80,30.20,29.97,18,4,28,0.31
2013-11-23,32.9,27.5,18.6,26.7,20.0,8.7,85,73,56,30.23,30.02,21,9,30,0.00
2013-11-24,23.6,19.7,15.9,18.8,13.1,8.9,92,75,60,30.43,30.23,13,7,20,0.00
2013-11-25,36.1,28.6,17.2,30.1,18.0,11.2,87,66,45,30.39,30.07,19,7,31,0.00
2013-11-26,34.9,33.7,33.0,32.8,31.3,29.1,94,91,80,30.11,29.79,15,2,25,0.06
2013-11-27,33.7,30.2,23.0,32.2,26.4,17.1,94,86,71,29.94,29.66,15,5,21,0.01
2013-11-28,26.9,22.8,17.9,21.5,17.1,13.9,91,79,59,30.41,29.94,13,3,18,0.02
2013-11-29,29.8,20.5,7.7,21.3,15.3,4.9,93,81,58,30.72,30.41,5,0,7,0.12
2013-11-30,36.6,23.2,6.3,27.1,16.4,3.5,91,76,59,30.70,30.17,10,2,17,0.01
2013-12-1,40.9,35.5,29.4,34.0,29.8,25.7,89,80,66,30.17,29.92,8,1,13,0.11
2013-12-2,37.4,34.2,25.5,35.3,31.4,23.3,93,89,85,29.92,29.84,5,1,6,0.00
2013-12-3,40.2,30.5,20.3,34.2,25.9,18.6,94,84,63,29.98,29.89,5,1,10,0.00
2013-12-4,51.2,39.6,33.5,42.9,35.7,29.3,93,86,71,29.98,29.80,6,0,13,0.01
2013-12-5,60.2,50.6,37.5,53.4,44.6,32.6,93,80,71,30.01,29.68,19,7,26,0.01
2013-12-6,37.0,32.8,29.5,33.1,26.6,21.7,93,78,70,30.25,30.00,10,4,14,0.03
2013-12-7,29.6,26.3,21.4,22.8,18.0,13.0,82,71,60,30.57,30.24,14,6,20,0.00
2013-12-8,27.6,23.5,15.9,24.9,17.0,11.9,91,76,62,30.57,29.95,7,2,13,0.00
2013-12-9,39.2,32.5,26.5,37.1,28.7,21.7,94,86,76,30.15,29.83,24,8,37,0.04
2013-12-10,29.0,23.2,20.1,22.5,14.8,9.5,98,70,60,30.07,29.89,20,10,26,0.00
2013-12-11,24.9,20.6,12.9,17.0,12.5,7.8,82,71,63,30.31,30.07,22,9,30,0.00
2013-12-12,21.0,16.2,10.8,17.6,8.9,2.4,89,73,59,30.34,30.07,19,9,26,0.00
2013-12-13,24.8,18.4,13.0,19.8,13.7,8.7,88,82,70,30.40,30.05,17,5,26,0.00
2013-12-14,17.9,14.2,11.5,15.6,11.0,7.6,91,87,79,30.41,29.73,12,4,20,0.00
2013-12-15,25.3,19.0,12.3,22.2,14.9,6.7,93,84,70,29.97,29.62,20,6,30,0.00
2013-12-16,21.3,11.5,-5.1,12.1,5.0,-9.0,85,75,61,30.17,29.87,16,4,27,0.03
2013-12-17,28.2,16.7,-7.1,26.2,13.2,-10.9,92,86,76,30.14,29.91,14,2,20,0.00
2013-12-18,31.3,27.6,22.1,25.0,22.2,19.1,91,80,70,30.04,29.92,18,6,26,0.00
2013-12-19,41.1,35.0,27.3,33.7,28.6,19.4,91,78,70,30.01,29.85,18,5,27,0.26
2013-12-20,43.4,39.3,34.1,41.7,37.6,31.6,94,94,91,29.97,29.74,9,1,14,0.84
2013-12-21,52.3,39.2,32.7,50.6,37.6,31.2,95,94,92,29.84,29.66,14,3,20,1.11
2013-12-22,41.8,35.7,32.4,40.2,34.1,30.9,94,94,90,29.93,29.58,10,2,17,1.52
2013-12-23,38.7,33.0,24.6,36.3,29.5,18.4,93,87,75,30.26,29.91,13,5,21,0.00
2013-12-24,25.4,19.7,10.2,21.8,16.0,6.1,91,85,77,30.50,30.19,9,3,13,0.00
2013-12-25,26.9,12.3,-3.8,20.3,7.4,-7.0,97,81,68,30.52,30.18,7,0,12,0.00
2013-12-26,31.0,27.3,19.4,28.5,21.7,13.1,93,80,71,30.27,30.03,15,5,22,0.03
2013-12-27,36.2,27.9,19.2,30.7,23.7,13.2,93,84,72,30.26,30.04,14,4,20,0.01
2013-12-28,42.9,38.2,30.8,34.6,32.4,28.2,92,80,68,30.07,29.89,18,7,31,0.09
2013-12-29,46.4,40.9,26.0,37.7,31.4,20.3,90,70,48,29.89,29.59,18,6,26,0.00
2013-12-30,25.9,18.7,13.5,20.3,11.3,7.0,80,73,63,30.21,29.76,16,6,25,0.00
2013-12-31,22.0,17.6,13.1,19.6,11.1,5.0,91,76,61,30.24,29.95,24,7,35,0.00
2014-1-1,20.2,15.6,11.8,12.7,9.0,4.7,88,75,60,30.40,30.23,13,5,21,0.00
2014-1-2,14.1,9.7,5.0,11.2,6.7,1.4,96,87,85,30.29,30.00,17,8,25,0.00